ACA27 CYYT-LFVP

Flight info

Callsign ACA27
Flight time 0h 39m
Altitude 24000
Route YYT
Aircraft A319/M-SDE3FGHIRWY/LB1

Departure

Time 2026-05-04 21:08
Airport St. John's International Airport (CYYT)

Arrival

Time 2026-05-04 21:47
Airport Saint-Pierre Pointe-Blanche Airport (LFVP)
Time Latitude Longitude Altitude Speed Heading
2026-05-04 20:46 47.61338 -52.74159 439 ft 0 kts 242°
2026-05-04 20:54 47.61339 -52.74158 439 ft 0 kts 242°
2026-05-04 20:54 47.61344 -52.74143 438 ft 2 kts 243°
2026-05-04 20:54 47.61351 -52.74123 437 ft 2 kts 242°
2026-05-04 20:55 47.61355 -52.74111 437 ft 2 kts 243°
2026-05-04 20:55 47.61365 -52.74095 436 ft 2 kts 204°
2026-05-04 20:55 47.61380 -52.74090 436 ft 2 kts 171°
2026-05-04 20:55 47.61395 -52.74098 436 ft 2 kts 140°
2026-05-04 20:56 47.61402 -52.74110 436 ft 0 kts 117°
2026-05-04 20:56 47.61406 -52.74121 437 ft 1 kts 113°
2026-05-04 20:56 47.61406 -52.74122 437 ft 0 kts 114°
2026-05-04 20:59 47.61395 -52.74082 435 ft 9 kts 112°
2026-05-04 20:59 47.61343 -52.73978 433 ft 14 kts 158°
2026-05-04 20:59 47.61268 -52.73923 432 ft 11 kts 112°
2026-05-04 20:59 47.61321 -52.73832 429 ft 15 kts
2026-05-04 21:00 47.61434 -52.73852 427 ft 16 kts 347°
2026-05-04 21:00 47.61544 -52.73856 427 ft 16 kts 356°
2026-05-04 21:00 47.61648 -52.73872 428 ft 13 kts 354°
2026-05-04 21:00 47.61752 -52.73877 427 ft 15 kts 358°
2026-05-04 21:01 47.61868 -52.73885 425 ft 17 kts 356°
2026-05-04 21:01 47.61993 -52.73897 423 ft 18 kts 356°
2026-05-04 21:01 47.62124 -52.73910 421 ft 19 kts 354°
2026-05-04 21:01 47.62254 -52.73926 419 ft 19 kts 351°
2026-05-04 21:02 47.62368 -52.73941 418 ft 15 kts 356°
2026-05-04 21:02 47.62483 -52.73946 417 ft 17 kts
2026-05-04 21:02 47.62561 -52.73845 414 ft 14 kts 63°
2026-05-04 21:02 47.62551 -52.73751 412 ft 6 kts 168°
2026-05-04 21:03 47.62529 -52.73771 413 ft 3 kts 240°
2026-05-04 21:03 47.62525 -52.73790 413 ft 0 kts 258°
2026-05-04 21:07 47.62512 -52.73968 417 ft 52 kts 264°
2026-05-04 21:07 47.62472 -52.74853 445 ft 118 kts 266°
2026-05-04 21:07 47.62425 -52.76194 964 ft 135 kts 262°
2026-05-04 21:08 47.62456 -52.77537 1922 ft 132 kts 263°
2026-05-04 21:08 47.62624 -52.78797 2873 ft 127 kts 267°
2026-05-04 21:08 47.62781 -52.80009 3741 ft 123 kts 266°
2026-05-04 21:08 47.62924 -52.81230 4499 ft 125 kts 266°
2026-05-04 21:09 47.63054 -52.82561 5073 ft 139 kts 266°
2026-05-04 21:09 47.63172 -52.84051 5634 ft 156 kts 266°
2026-05-04 21:09 47.63276 -52.85755 6138 ft 178 kts 266°
2026-05-04 21:09 47.63369 -52.87663 6777 ft 196 kts 266°
2026-05-04 21:10 47.63402 -52.89732 7404 ft 210 kts 258°
2026-05-04 21:10 47.62792 -52.91715 8052 ft 224 kts 230°
2026-05-04 21:10 47.61430 -52.92919 8969 ft 243 kts 203°
2026-05-04 21:10 47.59685 -52.92930 9891 ft 270 kts 176°
2026-05-04 21:11 47.57974 -52.91626 10887 ft 295 kts 150°
2026-05-04 21:11 47.56548 -52.89398 11885 ft 305 kts 141°
2026-05-04 21:11 47.55198 -52.86938 12724 ft 312 kts 139°
2026-05-04 21:11 47.53840 -52.84426 13533 ft 315 kts 139°
2026-05-04 21:12 47.52434 -52.81919 14340 ft 314 kts 144°
2026-05-04 21:12 47.50705 -52.80278 15087 ft 289 kts 174°
2026-05-04 21:12 47.48824 -52.80204 15820 ft 267 kts 204°
2026-05-04 21:12 47.47318 -52.81625 16491 ft 259 kts 234°
2026-05-04 21:13 47.46524 -52.84000 17178 ft 263 kts 253°
2026-05-04 21:13 47.46374 -52.86706 17832 ft 274 kts 272°
2026-05-04 21:13 47.46887 -52.89481 18437 ft 286 kts 281°
2026-05-04 21:13 47.47193 -52.92388 18728 ft 292 kts 260°
2026-05-04 21:14 47.46760 -52.95332 19278 ft 297 kts 255°
2026-05-04 21:14 47.46355 -52.98327 19956 ft 301 kts 256°
2026-05-04 21:14 47.45963 -53.01356 20639 ft 303 kts 256°
2026-05-04 21:14 47.45550 -53.04390 21295 ft 306 kts 256°
2026-05-04 21:15 47.45114 -53.07485 21927 ft 309 kts 256°
2026-05-04 21:15 47.44668 -53.10564 22536 ft 312 kts 255°
2026-05-04 21:15 47.44203 -53.13717 23129 ft 315 kts 255°
2026-05-04 21:15 47.43737 -53.16857 23486 ft 316 kts 255°
2026-05-04 21:16 47.43256 -53.20053 23547 ft 316 kts 255°
2026-05-04 21:16 47.42778 -53.23212 23548 ft 316 kts 255°
2026-05-04 21:16 47.42300 -53.26347 23552 ft 316 kts 255°
2026-05-04 21:16 47.41817 -53.29497 23557 ft 315 kts 255°
2026-05-04 21:17 47.41334 -53.32647 23567 ft 314 kts 255°
2026-05-04 21:17 47.40854 -53.35770 23562 ft 314 kts 255°
2026-05-04 21:17 47.40374 -53.38886 23562 ft 314 kts 255°
2026-05-04 21:17 47.39886 -53.42047 23568 ft 314 kts 255°
2026-05-04 21:18 47.39402 -53.45167 23571 ft 313 kts 255°
2026-05-04 21:18 47.38918 -53.48275 23570 ft 313 kts 255°
2026-05-04 21:18 47.38434 -53.51393 23567 ft 313 kts 255°
2026-05-04 21:18 47.37947 -53.54517 23568 ft 313 kts 255°
2026-05-04 21:19 47.37456 -53.57658 23565 ft 313 kts 255°
2026-05-04 21:19 47.36969 -53.60767 23577 ft 313 kts 255°
2026-05-04 21:19 47.36480 -53.63886 23564 ft 312 kts 255°
2026-05-04 21:19 47.35988 -53.67016 23570 ft 312 kts 255°
2026-05-04 21:20 47.35502 -53.70099 23560 ft 312 kts 255°
2026-05-04 21:20 47.35010 -53.73228 23557 ft 312 kts 255°
2026-05-04 21:20 47.34521 -53.76319 23559 ft 312 kts 255°
2026-05-04 21:20 47.34029 -53.79424 23550 ft 312 kts 255°
2026-05-04 21:21 47.33540 -53.82503 23554 ft 312 kts 255°
2026-05-04 21:21 47.33044 -53.85626 23561 ft 311 kts 255°
2026-05-04 21:21 47.32551 -53.88726 23568 ft 311 kts 255°
2026-05-04 21:21 47.32061 -53.91795 23573 ft 310 kts 255°
2026-05-04 21:22 47.31563 -53.94910 23580 ft 310 kts 255°
2026-05-04 21:22 47.31074 -53.97965 23575 ft 310 kts 255°
2026-05-04 21:22 47.30576 -54.01068 23579 ft 310 kts 255°
2026-05-04 21:22 47.30081 -54.04148 23579 ft 310 kts 255°
2026-05-04 21:23 47.29587 -54.07211 23578 ft 310 kts 255°
2026-05-04 21:23 47.29087 -54.10307 23567 ft 310 kts 255°
2026-05-04 21:23 47.28585 -54.13415 23581 ft 310 kts 255°
2026-05-04 21:23 47.28086 -54.16501 23586 ft 309 kts 255°
2026-05-04 21:24 47.27587 -54.19574 23583 ft 310 kts 255°
2026-05-04 21:24 47.27082 -54.22679 23587 ft 309 kts 255°
2026-05-04 21:24 47.26582 -54.25749 23573 ft 310 kts 255°
2026-05-04 21:24 47.26080 -54.28827 23570 ft 310 kts 255°
2026-05-04 21:25 47.25581 -54.31881 23573 ft 310 kts 255°
2026-05-04 21:25 47.25071 -54.35000 23579 ft 310 kts 255°
2026-05-04 21:25 47.24566 -54.38075 23577 ft 309 kts 256°
2026-05-04 21:25 47.24064 -54.41130 23566 ft 309 kts 256°
2026-05-04 21:26 47.23559 -54.44200 23577 ft 310 kts 256°
2026-05-04 21:26 47.23051 -54.47272 23491 ft 310 kts 256°
2026-05-04 21:26 47.22545 -54.50342 23246 ft 308 kts 256°
2026-05-04 21:26 47.22039 -54.53394 22997 ft 306 kts 256°
2026-05-04 21:27 47.21538 -54.56422 22752 ft 305 kts 256°
2026-05-04 21:27 47.21036 -54.59431 22508 ft 304 kts 256°
2026-05-04 21:27 47.20538 -54.62434 22260 ft 303 kts 256°
2026-05-04 21:27 47.20037 -54.65437 22009 ft 301 kts 255°
2026-05-04 21:28 47.19536 -54.68427 21773 ft 300 kts 255°
2026-05-04 21:28 47.19040 -54.71392 21538 ft 299 kts 256°
2026-05-04 21:28 47.18550 -54.74323 21316 ft 299 kts 256°
2026-05-04 21:28 47.18048 -54.77313 21050 ft 298 kts 256°
2026-05-04 21:29 47.17560 -54.80222 20724 ft 296 kts 256°
2026-05-04 21:29 47.17062 -54.83166 20341 ft 294 kts 256°
2026-05-04 21:29 47.16573 -54.86069 19946 ft 292 kts 256°
2026-05-04 21:29 47.16090 -54.88928 19557 ft 290 kts 256°
2026-05-04 21:30 47.15605 -54.91789 19166 ft 288 kts 256°
2026-05-04 21:30 47.15119 -54.94659 18764 ft 286 kts 256°
2026-05-04 21:30 47.14645 -54.97452 18384 ft 284 kts 256°
2026-05-04 21:30 47.14169 -55.00249 18002 ft 282 kts 256°
2026-05-04 21:31 47.13222 -55.05800 17270 ft 277 kts 256°
2026-05-04 21:31 47.12759 -55.08508 16909 ft 275 kts 256°
2026-05-04 21:31 47.12293 -55.11238 16548 ft 273 kts 256°
2026-05-04 21:32 47.11836 -55.13900 16188 ft 271 kts 256°
2026-05-04 21:32 47.11373 -55.16592 15822 ft 269 kts 257°
2026-05-04 21:32 47.10917 -55.19244 15458 ft 267 kts 257°
2026-05-04 21:32 47.10469 -55.21842 15099 ft 266 kts 257°
2026-05-04 21:33 47.10017 -55.24466 14745 ft 263 kts 257°
2026-05-04 21:33 47.09567 -55.27071 14389 ft 262 kts 257°
2026-05-04 21:33 47.09127 -55.29617 14046 ft 260 kts 257°
2026-05-04 21:33 47.08679 -55.32193 13698 ft 258 kts 257°
2026-05-04 21:34 47.08247 -55.34687 13364 ft 255 kts 257°
2026-05-04 21:34 47.07805 -55.37220 13008 ft 253 kts 257°
2026-05-04 21:34 47.07375 -55.39696 12671 ft 250 kts 257°
2026-05-04 21:34 47.06944 -55.42120 12352 ft 247 kts 255°
2026-05-04 21:35 47.06365 -55.44479 12021 ft 246 kts 249°
2026-05-04 21:35 47.05606 -55.46717 11675 ft 246 kts 244°
2026-05-04 21:35 47.04737 -55.48877 11344 ft 243 kts 243°
2026-05-04 21:35 47.03880 -55.50984 11020 ft 241 kts 243°
2026-05-04 21:36 47.03027 -55.53072 10679 ft 239 kts 243°
2026-05-04 21:36 47.02177 -55.55153 10355 ft 236 kts 243°
2026-05-04 21:36 47.01334 -55.57206 10026 ft 234 kts 244°
2026-05-04 21:36 47.00500 -55.59237 9706 ft 231 kts 244°
2026-05-04 21:37 46.99681 -55.61231 9527 ft 224 kts 244°
2026-05-04 21:37 46.98888 -55.63160 9278 ft 223 kts 244°
2026-05-04 21:37 46.98087 -55.65104 8952 ft 221 kts 243°
2026-05-04 21:37 46.97295 -55.67020 8629 ft 220 kts 244°
2026-05-04 21:38 46.96514 -55.68915 8305 ft 218 kts 244°
2026-05-04 21:38 46.95736 -55.70801 8000 ft 217 kts 244°
2026-05-04 21:38 46.94958 -55.72688 7691 ft 215 kts 244°
2026-05-04 21:38 46.94188 -55.74552 7384 ft 214 kts 244°
2026-05-04 21:39 46.93430 -55.76384 7086 ft 212 kts 245°
2026-05-04 21:39 46.92670 -55.78220 6785 ft 211 kts 245°
2026-05-04 21:39 46.91912 -55.80051 6512 ft 207 kts 244°
2026-05-04 21:39 46.91170 -55.81838 6245 ft 204 kts 245°
2026-05-04 21:40 46.90457 -55.83557 5942 ft 194 kts 244°
2026-05-04 21:40 46.89785 -55.85209 5584 ft 184 kts 244°
2026-05-04 21:40 46.89140 -55.86787 5216 ft 176 kts 246°
2026-05-04 21:40 46.88528 -55.88268 4858 ft 168 kts 245°
2026-05-04 21:41 46.87931 -55.89703 4624 ft 159 kts 245°
2026-05-04 21:41 46.87358 -55.91075 4454 ft 160 kts 245°
2026-05-04 21:41 46.86779 -55.92462 4142 ft 161 kts 245°
2026-05-04 21:41 46.86193 -55.93858 3831 ft 162 kts 244°
2026-05-04 21:42 46.85598 -55.95276 3523 ft 162 kts 244°
2026-05-04 21:42 46.85018 -55.96653 3326 ft 158 kts 244°
2026-05-04 21:42 46.84456 -55.97984 3109 ft 150 kts 244°
2026-05-04 21:42 46.83923 -55.99249 2802 ft 140 kts 244°
2026-05-04 21:43 46.83429 -56.00426 2607 ft 135 kts 243°
2026-05-04 21:43 46.82958 -56.01550 2505 ft 122 kts 243°
2026-05-04 21:43 46.82538 -56.02552 2306 ft 111 kts 243°
2026-05-04 21:43 46.82140 -56.03504 2155 ft 108 kts 243°
2026-05-04 21:44 46.81752 -56.04430 2004 ft 108 kts 243°
2026-05-04 21:44 46.81361 -56.05370 1839 ft 108 kts 242°
2026-05-04 21:44 46.80971 -56.06303 1681 ft 107 kts 242°
2026-05-04 21:44 46.80583 -56.07232 1530 ft 107 kts 243°
2026-05-04 21:45 46.80194 -56.08166 1382 ft 108 kts 241°
2026-05-04 21:45 46.79806 -56.09092 1244 ft 107 kts 241°
2026-05-04 21:45 46.79420 -56.10016 1099 ft 106 kts 241°
2026-05-04 21:45 46.79035 -56.10934 956 ft 106 kts 241°
2026-05-04 21:46 46.78649 -56.11861 805 ft 106 kts 240°
2026-05-04 21:46 46.78265 -56.12780 662 ft 105 kts 240°
2026-05-04 21:46 46.77888 -56.13686 513 ft 105 kts 239°
2026-05-04 21:46 46.77504 -56.14597 365 ft 105 kts 239°
2026-05-04 21:47 46.77132 -56.15496 192 ft 102 kts 238°
2026-05-04 21:47 46.76764 -56.16363 61 ft 99 kts 237°
2026-05-04 21:47 46.76442 -56.17135 22 ft 65 kts 239°
2026-05-04 21:47 46.76328 -56.17465 25 ft 17 kts 307°
2026-05-04 21:48 46.76378 -56.17529 26 ft 6 kts 306°
2026-05-04 21:48 46.76399 -56.17577 26 ft 4 kts 301°
2026-05-04 21:48 46.76409 -56.17601 26 ft 0 kts 298°
2026-05-04 21:49 46.76415 -56.17619 27 ft 6 kts 295°
2026-05-04 21:49 46.76416 -56.17727 28 ft 11 kts 262°
2026-05-04 21:50 46.76443 -56.17802 29 ft 7 kts 333°
2026-05-04 21:50 46.76455 -56.17839 29 ft 3 kts 265°
2026-05-04 21:50 46.76455 -56.17842 29 ft 0 kts 262°